Austin, TX

11:03 AM CDT on June 25, 2018 (GMT -0500)
Austin

Weather History for KATT - October, 2011

Change the Weather History Date:

Sunday, October 23, 2011

  Actual Average Record
Temperature  
Mean Temperature 77 °F 69 °F  
Max Temperature 90 °F 80 °F 94 °F (2003)
Min Temperature 63 °F 59 °F 36 °F (1923)
Degree Days  
Heating Degree Days 0 1  
Month to date heating degree days 3 12  
Since 1 July heating degree days 3 14  
Cooling Degree Days 12 5  
Month to date cooling degree days 217 183  
Year to date cooling degree days 4056 3027  
Growing Degree Days 26 (Base 50)    
Moisture  
Dew Point 61 °F    
Average Humidity 64    
Maximum Humidity 93    
Minimum Humidity 34    
Precipitation  
Precipitation 0.00 in 0.14 in 4.12 in (1953)
Month to date precipitation 2.19 2.94  
Year to date precipitation 11.84 28.02  
Snow  
Snow 0.00 in - - ()
Month to date snowfall 0.0  
Since 1 July snowfall 0.0  
Since 1 September snowfall 0.0  
Snow Depth 0.00 in    
Sea Level Pressure  
Sea Level Pressure 29.99 in    
Wind  
Wind Speed 3 mph (SW)    
Max Wind Speed 10 mph    
Max Gust Speed 17 mph    
Visibility 10 miles    
Events      
T = Trace of Precipitation, MM = Missing Value Source: NWS Daily Summary

Daily Weather History Graph

Daily Weather History Graph

Search for Another Location

Airport or City:

Astronomy

Oct. 23, 2011 Rise Set
Actual Time 7:38 AM CDT 6:51 PM CDT
Civil Twilight 7:14 AM CDT 7:16 PM CDT
Nautical Twilight 6:46 AM CDT 7:44 PM CDT
Astronomical Twilight 6:18 AM CDT 8:12 PM CDT
Moon 4:01 AM CDT (10/23) 4:32 PM CDT (10/23)
Length of Visible Light 12h 02m
Length of Day
11h 13m
Waning Crescent, 14% of the Moon is Illuminated
Oct 23
Waning Crescent
Oct 26
New
Nov 2
First Quarter
Nov 10
Full
Nov 18
Last Quarter

Hourly Weather History & Observations

Time (CDT) Temp. Heat Index Dew Point Humidity Pressure Visibility Wind Dir Wind Speed Gust Speed Precip Events Conditions
12:51 AM 70.0 °F - 61.0 °F 73% 29.96 in 10.0 mi South 6.9 mph - N/A   Clear
1:51 AM 69.1 °F - 62.1 °F 78% 29.96 in 10.0 mi Variable 3.5 mph - N/A   Clear
2:51 AM 68.0 °F - 62.1 °F 81% 29.96 in 10.0 mi South 5.8 mph - N/A   Clear
3:51 AM 66.0 °F - 62.1 °F 87% 29.94 in 10.0 mi South 3.5 mph - N/A   Clear
4:51 AM 64.9 °F - 61.0 °F 87% 29.94 in 10.0 mi Calm Calm - N/A   Clear
5:51 AM 64.0 °F - 61.0 °F 90% 29.96 in 10.0 mi Calm Calm - N/A   Clear
6:51 AM 63.0 °F - 61.0 °F 93% 29.98 in 10.0 mi Calm Calm - N/A   Clear
7:51 AM 63.0 °F - 60.1 °F 90% 30.00 in 10.0 mi Calm Calm - N/A   Clear
8:51 AM 66.0 °F - 62.1 °F 87% 30.02 in 10.0 mi Calm Calm - N/A   Clear
9:51 AM 71.1 °F - 62.1 °F 73% 30.03 in 10.0 mi Variable 3.5 mph - N/A   Clear
10:51 AM 78.1 °F - 62.1 °F 58% 30.02 in 10.0 mi SW 8.1 mph - N/A   Partly Cloudy
11:51 AM 82.0 °F 83.0 °F 62.1 °F 51% 30.01 in 10.0 mi Variable 4.6 mph - N/A   Partly Cloudy
12:51 PM 82.9 °F 83.3 °F 61.0 °F 47% 29.99 in 10.0 mi Variable 5.8 mph - N/A   Partly Cloudy
1:51 PM 86.0 °F 86.1 °F 61.0 °F 43% 29.96 in 10.0 mi Variable 3.5 mph - N/A   Partly Cloudy
2:51 PM 86.0 °F 85.7 °F 60.1 °F 41% 29.94 in 10.0 mi Calm Calm - N/A   Scattered Clouds
3:51 PM 90.0 °F 89.7 °F 60.1 °F 37% 29.93 in 10.0 mi Variable 3.5 mph - N/A   Clear
4:51 PM 90.0 °F 88.8 °F 57.9 °F 34% 29.93 in 10.0 mi Variable 3.5 mph - N/A   Clear
5:51 PM 87.1 °F 86.1 °F 57.9 °F 37% 29.95 in 10.0 mi WNW 5.8 mph - N/A   Clear
6:51 PM 84.0 °F 83.5 °F 57.9 °F 41% 29.97 in 10.0 mi North 3.5 mph - N/A   Partly Cloudy
7:51 PM 81.0 °F 81.3 °F 59.0 °F 47% 29.99 in 10.0 mi Calm Calm - N/A   Clear
8:51 PM 79.0 °F - 59.0 °F 50% 30.03 in 10.0 mi NNE 5.8 mph - N/A   Clear
9:51 PM 78.1 °F - 61.0 °F 56% 30.06 in 10.0 mi Variable 3.5 mph - N/A   Clear
10:51 PM 75.9 °F - 61.0 °F 60% 30.07 in 10.0 mi NE 5.8 mph - N/A   Clear
11:51 PM 73.9 °F - 62.1 °F 66% 30.09 in 10.0 mi Variable 5.8 mph - N/A   Clear